Regional Weather Roundup
Issued by NWS Boston, MA

Home | Current Version | Previous Version | Text Only | Print | Product List | Glossary On
Versions: 1 2 3 4 5 6 7 8 9 10 11 12 13 14 15 16 17 18 19 20 21 22 23 24 25 26 27 28 29 30 31 32 33 34 35 36 37 38 39 40 41 42 43 44 45 46 47 48 49 50
000
ASUS41 KBOX 231810
RWRBOX

REGIONAL WEATHER ROUNDUP
NATIONAL WEATHER SERVICE TAUNTON MA
200 PM EDT WED JUL 23 2014

NOTE:  "FAIR" INDICATES FEW OR NO CLOUDS BELOW 12,000 FEET WITH NO
SIGNIFICANT WEATHER AND/OR OBSTRUCTIONS TO VISIBILITY.  THE FOLLOWING
OBSERVATION LOCATIONS DO NOT REPORT PRESENT WEATHER...PROVINCETOWN...
SMITHFIELD...BLOCK ISLAND...KEENE...AND OXFORD.

MAZALL-231900-
EASTERN MASSACHUSETTS

CITY           SKY/WX    TMP DP  RH WIND       PRES   REMARKS
BOSTON         MOSUNNY   90  70  51 SW17      29.81F HX  95
6HR MIN TEMP:  76; 6HR MAX TEMP:  90;

BEVERLY        MOSUNNY   89  71  55 S14G21    29.79F HX  95
LAWRENCE       MOSUNNY   89  71  55 S12       29.81F HX  95
BEDFORD        MOSUNNY   89  72  56 S10       29.80F HX  96
BLUE HILL        N/A     88  71  57 SW17G25   29.84F HX  94
NORWOOD        SUNNY     89  70  53 S13G23    29.82F HX  94
MARSHFIELD     SUNNY     88  72  58 SW7G18    29.84F HX  94
PLYMOUTH       SUNNY     85  69  58 SW16G22   29.86F
TAUNTON        SUNNY     86  70  58 SW12G22   29.85F HX  90
NEW BEDFORD    SUNNY     83  71  67 S15       29.87F
$$

MAZALL-231900-
CAPE COD AND THE ISLANDS

CITY           SKY/WX    TMP DP  RH WIND       PRES   REMARKS
FALMOUTH       MOSUNNY   81  70  69 SW18G26   29.90S
HYANNIS        MOSUNNY   80  70  71 S14       29.88F
CHATHAM        MOSUNNY   78  70  76 SW15G23   29.91F
PROVINCETOWN   MOSUNNY   81  72  74 SW17      29.86F
NANTUCKET      SUNNY     72  67  84 S14       29.92F
MARTHAS VNYRD  SUNNY     76  69  79 SW15G25   29.91F
$$

MAZALL-231900-
CENTRAL AND WESTERN MASSACHUSETTS

CITY           SKY/WX    TMP DP  RH WIND       PRES   REMARKS
WORCESTER      MOSUNNY   84  69  60 SW10      29.87F
6HR MIN TEMP:  72; 6HR MAX TEMP:  85;

FITCHBURG      MOSUNNY   91  69  48 S13G20    29.82F HX  96
ORANGE           N/A    N/A N/A N/A MISG      29.82F
SPRINGFIELD    SUNNY     89  73  58 S12       29.81F HX  97
WESTFIELD      MOSUNNY   90  71  53 S13       29.81F HX  96
NORTH ADAMS    MOSUNNY   86  70  58 SW7       29.82F HX  90
PITTSFIELD     MOSUNNY   84  69  60 S12       29.85F
$$

RIZALL-231900-
RHODE ISLAND

CITY           SKY/WX    TMP DP  RH WIND       PRES   REMARKS
PROVIDENCE     MOSUNNY   87  70  56 S20       29.86F HX  92
6HR MIN TEMP:  75; 6HR MAX TEMP:  88;

NEWPORT        SUNNY     78  69  73 S14G23    29.89F
BLOCK ISLAND   SUNNY     77  66  69 SW18G25   29.91F
SMITHFIELD     MOSUNNY   86  70  58 SW7       29.88F HX  90
WESTERLY       SUNNY     81  69  67 S16       29.90F
$$

CTZALL-231900-
CONNECTICUT

CITY           SKY/WX    TMP DP  RH WIND       PRES   REMARKS
BRADLEY INTL   MOSUNNY   91  70  49 S14G22    29.82F HX  96
6HR MIN TEMP:  75; 6HR MAX TEMP:  92;

HARTFORD       SUNNY     88  71  57 S17G23    29.83F HX  94
BRIDGEPORT     SUNNY     85  72  65 SW10      29.87F HX  91
DANBURY        MOSUNNY   86  71  60 S9        29.88F HX  91
GROTON         SUNNY     79  71  76 SW14      29.88F
NEW HAVEN      MOSUNNY   84  71  65 S9        29.88F
CHESTER        FAIR      84  72  65 S10       29.90S
MERIDEN        MOSUNNY   87  71  58 S10       29.85F HX  93
WILLIMANTIC    MOSUNNY   86  70  58 S10G17    29.86F HX  90
OXFORD         PTSUNNY   84  72  65 SW8G22    29.91F
$$

MEZ002-015-021-024-NHZ003-005-008-011-012-014-VTZ005-008-231900-
NORTHERN NEW ENGLAND

CITY           SKY/WX    TMP DP  RH WIND       PRES   REMARKS
PORTLAND ME    PTSUNNY   86  72  62 S14       29.75F HX  92
6HR MIN TEMP:  76; 6HR MAX TEMP:  87;

BANGOR ME      MOSUNNY   86  71  60 S15       29.73F HX  91
CONCORD NH     MOSUNNY   90  68  48 SW9G18    29.78F HX  94
MANCHESTER NH  MOSUNNY   90  68  48 SW12      29.77F HX  94
NASHUA NH      MOSUNNY   91  69  48 S8        29.79F HX  95
PORTSMOUTH NH  MOSUNNY   90  72  54 SW12      29.77F HX  97
JAFFREY NH     SUNNY     87  68  52 S8G17     29.85F HX  90
KEENE NH       MOSUNNY   88  66  48 SW16      29.81F HX  90
BURLINGTON VT  LGT RAIN  79  70  74 NW20      29.74R
MT. WASHINGTON CLOUDY    59  57  94 W33         N/A
$$

NYZ052-076-231900-
EASTERN NEW YORK

CITY           SKY/WX    TMP DP  RH WIND       PRES   REMARKS
ALBANY         PTSUNNY   89  73  59 S12       29.79F HX  97
6HR MIN TEMP:  76; 6HR MAX TEMP:  89;

NEW YORK CITY  MOSUNNY   87  72  60 S15G22    29.87F HX  93
6HR MIN TEMP:  76; 6HR MAX TEMP:  88;

$$

ANZALL-231900-
MARINE OBSERVATIONS

STATION/POSITION TIME  TEMP    WIND        PRES    VSBY  WAVE
                       AIR SEA DIR/SP/G                  HT/PER
                 (UTC) (F)     (DEG/KT/KT) (MB)    (MI)  (FT/S)
BOSTON BUOY      NOT AVBL
BUZZARDS BAY     NOT AVBL
NANTUCKET SOUND  NOT AVBL
MASS BAY-STELLWA NOT AVBL
ISLE OF SHOALS   NOT AVBL
S OF BLOCK IS    NOT AVBL
$$

......................KEY.........................
  SKY/WX - SKY CONDITION/PRESENT WEATHER
  TMP    - TEMPERATURE IN FAHRENHEIT
  DWPT   - DEWPOINT IN FAHRENHEIT
  RH     - RELATIVE HUMIDITY IN PERCENT
  WIND   - DIRECTION AND SPEED IN MPH
  PRES   - MEAN SEA LEVEL PRESSURE IN INCHES OF HG
  WCI    - WIND CHILL INDEX
  VSB    - VISIBILITY IN MILES
  HX     - HEAT INDEX
  TC     - TEMPERATURE IN CELSIUS
  VRB    - VARIABLE WIND DIRECTION
  N/A    - NOT AVAILABLE



USA.gov is the U.S. government's official web portal to all federal, state and local government web resources and services.